Location: Newark
(49.8969°N, 3.3422°E)
Time: 21:08:26
(UTC+00:00)

Explorer 7 - Pass Details

Date: 24 January 2020
Orbit: 485 x 679 km, 50.3° (Epoch: 23 February)

Event Time Altitude Azimuth Distance (km) Brightness Sun altitude
Rises 22:30:42 0° 216° (SW) 2,561 - -54.6°
Reaches altitude 10° 22:33:06 10° 203° (SSW) 1,669 - -54.8°
Maximum altitude 22:36:16 26° 146° (SE) 990 - -55.1°
Drops below altitude 10° 22:39:25 10° 89° (E) 1,671 - -55.4°
Sets 22:41:50 0° 76° (ENE) 2,564 - -55.6°
